VE7ALB-8 Weather Reports


Display with metric or nautical units.
time (UTC)temp
F
wind
direction
speed
MPH
gust
MPH
rain 1hr
in
rain 24hr
in
rain mn
in
humidity
%
barometer
mb
20260906225028 60 48 5.0 7.0 0.00 0.03 0.03 89 927.1
20260906224049 60 327 4.0 7.0 0.00 0.03 0.03 89 927.1
20260906223031 60 331 4.0 6.0 0.00 0.03 0.03 91 927.3
20260906222027 59 315 4.0 6.0 0.00 0.03 0.03 91 927.3
20260906221029 59 10 3.0 5.0 0.00 0.03 0.03 91 927.1
20260906220030 59 350 4.0 5.0 0.00 0.03 0.03 92 927.1
20260906215112 59 10 4.0 6.0 0.00 0.03 0.03 92 927.1
20260906214049 58 20 3.0 5.0 0.01 0.03 0.03 92 927.1
20260906213016 58 359 4.0 6.0 0.02 0.03 0.03 93 927.3
20260906212039 58 41 4.0 7.0 0.02 0.03 0.03 93 927.3
20260906211020 58 65 3.0 5.0 0.02 0.03 0.03 93 927.8
20260906210021 58 82 4.0 5.0 0.02 0.03 0.03 93 927.8
20260906205024 58 83 3.0 5.0 0.02 0.03 0.03 93 927.9
20260906204021 57 97 4.0 6.0 0.02 0.02 0.02 93 928.0
20260906203021 57 98 5.0 6.0 0.01 0.01 0.01 92 928.1
20260906202022 58 95 5.0 6.0 0.01 0.01 0.01 91 928.1
20260906201025 58 104 4.0 5.0 0.01 0.01 0.01 91 928.1
20260906200026 58 95 5.0 6.0 0.01 0.01 0.01 90 928.2
20260906195048 59 100 5.0 7.0 0.01 0.01 0.01 90 928.3
20260906194030 59 102 4.0 6.0 0.00 0.00 0.00 90 928.3
20260906193031 59 89 5.0 6.0 0.00 0.00 0.00 90 928.5
20260906192028 59 114 4.0 6.0 0.00 0.00 0.00 88 928.8
20260906191023 59 113 4.0 5.0 0.00 0.00 0.00 86 928.8
20260906190021 59 109 5.0 8.0 0.00 0.00 0.00 85 928.9
20260906185027 59 97 5.0 8.0 0.00 0.00 0.00 85 929.0
20260906184029 59 109 3.0 5.0 0.00 0.00 0.00 85 929.1
20260906183054 59 112 4.0 5.0 0.00 0.00 0.00 85 929.3
20260906182033 60 121 4.0 6.0 0.00 0.00 0.00 84 929.3
20260906181020 60 99 4.0 5.0 0.00 0.00 0.00 84 929.1
20260906180018 59 93 5.0 7.0 0.00 0.00 0.00 86 929.5
20260906175033 58 106 6.0 9.0 0.00 0.00 0.00 86 929.8
20260906174029 58 102 7.0 9.0 0.00 0.00 0.00 87 929.8
20260906173036 58 106 5.0 6.0 0.00 0.00 0.00 87 929.8
20260906172033 58 100 5.0 7.0 0.00 0.00 0.00 87 929.8
20260906171016 59 86 6.0 8.0 0.00 0.00 0.00 86 929.8
20260906170018 59 92 4.0 5.0 0.00 0.00 0.00 87 929.8
20260906165018 58 93 6.0 8.0 0.00 0.00 0.00 88 929.8
20260906164039 58 106 6.0 8.0 0.00 0.00 0.00 87 930.1
20260906163015 59 105 4.0 6.0 0.00 0.00 0.00 87 929.8
20260906162024 59 82 5.0 7.0 0.00 0.00 0.00 87 929.6
20260906161025 58 92 6.0 8.0 0.00 0.00 0.00 88 929.8
20260906160043 57 106 5.0 6.0 0.00 0.00 0.00 89 929.4
20260906155022 57 77 5.0 6.0 0.00 0.00 0.00 89 929.4
20260906154045 56 71 4.0 5.0 0.00 0.00 0.00 91 929.6
20260906153026 56 78 4.0 5.0 0.00 0.00 0.00 92 929.5
20260906152028 55 84 4.0 5.0 0.00 0.00 0.00 95 929.8
20260906151031 54 97 4.0 6.0 0.00 0.00 0.00 96 930.0
20260906150030 54 127 3.0 5.0 0.00 0.00 0.00 96 930.1
20260906145032 54 103 3.0 4.0 0.00 0.00 0.00 96 930.1
20260906144036 54 100 3.0 4.0 0.00 0.00 0.00 98 930.1
20260906143024 53 126 2.0 4.0 0.00 0.00 0.00 99 930.1
20260906142039 53 109 4.0 5.0 0.00 0.00 0.00 99 930.0
20260906141017 53 101 6.0 7.0 0.00 0.00 0.00 99 930.3
20260906140050 53 101 3.0 3.0 0.00 0.00 0.00 99 930.3
20260906135051 53 135 0.0 2.0 0.00 0.00 0.00 99 930.3
20260906134053 53 0.0 0.0 0.00 0.00 0.00 99 930.3
20260906133036 53 138 1.0 3.0 0.00 0.00 0.00 99 930.3
20260906132018 53 0.0 0.0 0.00 0.00 0.00 99 930.3
20260906131021 52 248 1.0 2.0 0.00 0.00 0.00 99 930.1
20260906130021 52 0.0 0.0 0.00 0.00 0.00 99 930.1
20260906125022 52 270 0.0 2.0 0.00 0.00 0.00 99 930.1
20260906124019 52 348 1.0 4.0 0.00 0.00 0.00 99 930.0
20260906123020 52 71 1.0 2.0 0.00 0.00 0.00 99 930.0
20260906122016 52 88 3.0 4.0 0.00 0.00 0.00 99 930.1
20260906121025 52 76 3.0 5.0 0.00 0.00 0.00 99 930.1
20260906120020 52 101 3.0 4.0 0.00 0.00 0.00 99 930.2
20260906115015 53 88 4.0 5.0 0.00 0.00 0.00 99 930.4
20260906114037 52 101 3.0 4.0 0.00 0.00 0.00 99 930.6
20260906113018 52 89 1.0 2.0 0.00 0.00 0.00 99 930.6
20260906112022 52 87 2.0 3.0 0.00 0.00 0.00 99 930.6
20260906111050 52 68 3.0 4.0 0.00 0.00 0.00 99 930.6
20260906110053 52 23 2.0 3.0 0.00 0.00 0.00 99 930.6
20260906105034 52 69 3.0 4.0 0.00 0.00 0.00 99 930.6
20260906104016 52 95 4.0 5.0 0.00 0.00 0.00 99 930.6
20260906103017 52 65 2.0 4.0 0.00 0.00 0.00 99 931.1
20260906102040 52 14 0.0 2.0 0.00 0.00 0.00 99 931.1
20260906101021 52 346 3.0 4.0 0.00 0.00 0.00 99 931.1
20260906100021 52 352 2.0 3.0 0.00 0.00 0.00 99 931.1
20260906095023 52 42 3.0 4.0 0.00 0.00 0.00 99 931.2
20260906094018 52 23 0.0 2.0 0.00 0.00 0.00 99 931.3
20260906093028 52 358 1.0 3.0 0.00 0.00 0.00 99 931.3
20260906092029 52 328 2.0 3.0 0.00 0.00 0.00 99 931.5
20260906091051 52 315 1.0 2.0 0.00 0.00 0.00 99 931.6
20260906090034 52 331 2.0 3.0 0.00 0.00 0.00 99 931.5
20260906085016 52 9 1.0 2.0 0.00 0.00 0.00 99 931.5
20260906084030 52 324 4.0 4.0 0.00 0.00 0.00 99 931.5
20260906083028 52 314 4.0 5.0 0.00 0.00 0.00 99 931.5
20260906082029 52 315 1.0 3.0 0.00 0.00 0.00 99 931.5
20260906081030 52 0.0 0.0 0.00 0.00 0.00 99 931.5
20260906080155 52 348 1.0 2.0 0.00 0.00 0.00 99 931.5
20260906075028 52 355 1.0 2.0 0.00 0.00 0.00 99 931.5
20260906074030 53 351 1.0 3.0 0.00 0.00 0.00 99 931.6
20260906073028 53 338 2.0 3.0 0.00 0.00 0.00 99 931.6
20260906072022 53 338 1.0 3.0 0.00 0.00 0.00 99 931.6
20260906071019 53 338 0.0 2.0 0.00 0.00 0.00 99 931.6
20260906070025 53 20 1.0 3.0 0.00 0.00 0.00 99 931.5
20260906065027 53 8 1.0 2.0 0.00 0.00 0.00 99 931.4
20260906064028 53 338 1.0 2.0 0.00 0.00 0.00 98 931.3
20260906063024 53 341 3.0 4.0 0.00 0.00 0.00 98 931.3
20260906062043 53 4 1.0 3.0 0.00 0.00 0.00 98 931.3
20260906061022 53 2 2.0 3.0 0.00 0.00 0.00 98 931.5
20260906060019 53 353 1.0 3.0 0.00 0.00 0.00 98 931.5
20260906055021 53 340 2.0 3.0 0.00 0.00 0.00 98 931.5
20260906054022 53 46 2.0 3.0 0.00 0.00 0.00 98 931.3
20260906053019 53 341 4.0 5.0 0.00 0.00 0.00 98 931.3
20260906052019 53 9 3.0 5.0 0.00 0.00 0.00 98 931.3
20260906051015 54 6 3.0 4.0 0.00 0.00 0.00 98 931.6
20260906050017 54 356 2.0 3.0 0.00 0.00 0.00 98 931.4
20260906045037 54 21 3.0 4.0 0.00 0.00 0.00 98 931.3
20260906044018 54 359 3.0 4.0 0.00 0.00 0.00 98 931.3
20260906043034 54 345 3.0 5.0 0.00 0.00 0.00 98 931.3
20260906042018 54 324 3.0 4.0 0.00 0.00 0.00 98 931.3
20260906041018 54 353 2.0 4.0 0.00 0.00 0.00 98 931.3
20260906040019 54 17 3.0 4.0 0.00 0.00 0.00 98 931.3
20260906035015 54 3 4.0 6.0 0.00 0.00 0.00 98 931.3
20260906034017 54 5 3.0 5.0 0.00 0.00 0.00 98 931.3
20260906033031 54 349 5.0 6.0 0.00 0.00 0.00 98 931.3
20260906032053 54 355 5.0 7.0 0.00 0.00 0.00 98 931.3
20260906031016 54 349 4.0 6.0 0.00 0.00 0.00 98 931.1
20260906030030 54 341 4.0 6.0 0.00 0.00 0.00 98 931.1
20260906025028 54 3 4.0 6.0 0.00 0.00 0.00 98 931.0
20260906024022 54 351 6.0 7.0 0.00 0.00 0.00 98 931.0
20260906023019 54 344 6.0 8.0 0.00 0.00 0.00 98 931.1
20260906022033 54 37 3.0 5.0 0.00 0.00 0.00 98 931.1
20260906021022 54 14 4.0 7.0 0.00 0.00 0.00 98 931.1
20260906020024 54 357 4.0 6.0 0.00 0.00 0.00 98 931.0
20260906015027 54 336 6.0 8.0 0.00 0.00 0.00 98 930.9
20260906014028 54 7 6.0 7.0 0.00 0.00 0.00 98 930.8
20260906013029 54 356 5.0 6.0 0.00 0.00 0.00 98 930.8
20260906012032 54 352 4.0 5.0 0.00 0.00 0.00 98 930.6
20260906011032 54 358 5.0 7.0 0.00 0.00 0.00 98 930.6
20260906010017 54 346 5.0 8.0 0.00 0.00 0.00 98 930.5
20260906005017 54 343 5.0 6.0 0.00 0.00 0.00 98 930.5
20260906004040 54 346 6.0 8.0 0.00 0.00 0.00 97 930.5
20260906003040 54 350 6.0 8.0 0.00 0.00 0.00 97 930.5
20260906002043 54 323 6.0 9.0 0.00 0.00 0.00 97 930.3
20260906001017 54 313 6.0 10.0 0.00 0.00 0.00 97 930.3
20260906000019 54 329 6.0 9.0 0.00 0.00 0.00 97 930.3
20260905235020 54 321 6.0 10.0 0.00 0.01 0.00 97 930.3
20260905234020 55 301 7.0 11.0 0.00 0.01 0.00 97 930.3
20260905233018 55 337 6.0 8.0 0.00 0.01 0.00 97 930.3
20260905232021 55 324 6.0 9.0 0.00 0.01 0.00 96 930.3
20260905231021 55 326 6.0 9.0 0.00 0.01 0.00 96 930.1
20260905230024 55 336 6.0 9.0 0.00 0.01 0.00 96 930.1